When you browse on this site, cookies collect data to enhance your experience and personalize the content and advertising you see.
Visit our Privacy Policy to learn more. By continuing to use the site, you agree to this use of cookies and data.
  • en Suisse
  • Liste des pays
  • À 7 jours
  • Température de l'eau
  • Carte satellitaire
  • Carte météo
  • Widgets météo
  • user-avatar
    Se connecter

    Météo par heure à Tinheyri

    Ce jour, 11 Décembre, Mardi

    Heure Température Précipitation Vent Pression Humidité
    00:00 0°C° 0 mm 5 m/s 720 mmHg 89%
    01:00 0°C° 0 mm 4 m/s 720 mmHg 90%
    02:00 0°C° 0 mm 5 m/s 720 mmHg 90%
    03:00 0°C° 0 mm 5 m/s 719 mmHg 90%
    04:00 +1°C° 0 mm 5 m/s 719 mmHg 90%
    05:00 0°C° 1.4 mm 7 m/s 718 mmHg 91%
    06:00 0°C° 1.4 mm 9 m/s 717 mmHg 91%
    07:00 -1°C° 1.4 mm 11 m/s 716 mmHg 92%
    08:00 +1°C° 0.4 mm 11 m/s 715 mmHg 92%
    09:00 +1°C° 0.4 mm 11 m/s 714 mmHg 92%
    10:00 +2°C° 0.4 mm 11 m/s 713 mmHg 93%
    11:00 +2°C° 0.1 mm 11 m/s 713 mmHg 91%
    12:00 +2°C° 0.1 mm 12 m/s 713 mmHg 90%
    13:00 +2°C° 0.1 mm 12 m/s 713 mmHg 88%
    14:00 0°C° 0 mm 12 m/s 713 mmHg 87%
    15:00 +1°C° 0 mm 11 m/s 714 mmHg 85%
    16:00 +1°C° 0 mm 10 m/s 715 mmHg 84%
    17:00 0°C° 0 mm 10 m/s 715 mmHg 83%
    18:00 -1°C° 0 mm 11 m/s 716 mmHg 82%
    19:00 -1°C° 0 mm 11 m/s 716 mmHg 81%
    20:00 -1°C° 0 mm 11 m/s 716 mmHg 81%
    21:00 -1°C° 0 mm 11 m/s 716 mmHg 80%
    22:00 -1°C° 0 mm 11 m/s 716 mmHg 80%
    23:00 -1°C° 0.1 mm 11 m/s 716 mmHg 79%

    Demain, 12 Décembre, Mercredi

    Heure Température Précipitation Vent Pression Humidité
    00:00 -1°C° 0.1 mm 11 m/s 716 mmHg 78%
    01:00 -1°C° 0.1 mm 11 m/s 716 mmHg 78%
    02:00 -1°C° 0.2 mm 11 m/s 716 mmHg 79%
    03:00 -1°C° 0.2 mm 11 m/s 716 mmHg 80%
    04:00 -1°C° 0.2 mm 11 m/s 716 mmHg 82%
    05:00 -1°C° 0.6 mm 11 m/s 717 mmHg 83%
    06:00 0°C° 0.6 mm 10 m/s 718 mmHg 85%
    07:00 0°C° 0.6 mm 10 m/s 718 mmHg 87%
    08:00 0°C° 0.2 mm 10 m/s 719 mmHg 86%
    09:00 0°C° 0.2 mm 9 m/s 720 mmHg 85%
    10:00 0°C° 0.2 mm 9 m/s 721 mmHg 84%
    11:00 0°C° 0 mm 8 m/s 722 mmHg 85%
    12:00 0°C° 0 mm 7 m/s 722 mmHg 85%
    13:00 -1°C° 0 mm 6 m/s 723 mmHg 86%
    14:00 -1°C° 0.1 mm 6 m/s 723 mmHg 86%
    15:00 +1°C° 0.1 mm 5 m/s 723 mmHg 87%
    16:00 +1°C° 0.1 mm 5 m/s 724 mmHg 88%
    17:00 +1°C° 0.2 mm 5 m/s 724 mmHg 87%
    18:00 +1°C° 0.2 mm 6 m/s 724 mmHg 86%
    19:00 +1°C° 0.2 mm 6 m/s 724 mmHg 86%
    20:00 +1°C° 0.1 mm 6 m/s 723 mmHg 83%
    21:00 0°C° 0.1 mm 7 m/s 723 mmHg 81%
    22:00 0°C° 0.1 mm 8 m/s 723 mmHg 79%
    23:00 0°C° 0.1 mm 8 m/s 722 mmHg 77%

    Après-demain, 13 Décembre, Jeudi

    Heure Température Précipitation Vent Pression Humidité
    00:00 0°C° 0.1 mm 9 m/s 722 mmHg 76%
    01:00 0°C° 0.1 mm 9 m/s 721 mmHg 75%
    02:00 0°C° 0.4 mm 9 m/s 721 mmHg 76%
    03:00 0°C° 0.4 mm 9 m/s 720 mmHg 78%
    04:00 0°C° 0.4 mm 9 m/s 719 mmHg 79%
    05:00 0°C° 0.3 mm 9 m/s 718 mmHg 80%
    06:00 0°C° 0.3 mm 9 m/s 718 mmHg 81%
    07:00 0°C° 0.3 mm 9 m/s 717 mmHg 82%
    08:00 0°C° 0.3 mm 9 m/s 717 mmHg 82%
    09:00 0°C° 0.3 mm 9 m/s 716 mmHg 83%
    10:00 +1°C° 0.3 mm 9 m/s 716 mmHg 83%
    11:00 +1°C° 0.2 mm 10 m/s 715 mmHg 82%
    12:00 +1°C° 0.2 mm 10 m/s 714 mmHg 82%
    13:00 +1°C° 0.2 mm 10 m/s 713 mmHg 82%
    14:00 +1°C° 0 mm 11 m/s 712 mmHg 81%
    15:00 0°C° 0 mm 12 m/s 711 mmHg 80%
    16:00 0°C° 0 mm 13 m/s 710 mmHg 79%
    17:00 0°C° 0 mm 13 m/s 710 mmHg 80%
    18:00 0°C° 0 mm 13 m/s 710 mmHg 80%
    19:00 0°C° 0 mm 13 m/s 710 mmHg 81%
    20:00 0°C° 0.7 mm 13 m/s 710 mmHg 83%
    21:00 0°C° 0.7 mm 13 m/s 711 mmHg 85%
    22:00 0°C° 0.7 mm 14 m/s 712 mmHg 87%
    23:00 -1°C° 0.4 mm 13 m/s 713 mmHg 84%

    14 Décembre, Vendredi

    Heure Température Précipitation Vent Pression Humidité
    00:00 -1°C° 0.4 mm 13 m/s 715 mmHg 82%
    01:00 -1°C° 0.4 mm 12 m/s 716 mmHg 80%
    02:00 -2°C° 0.1 mm 11 m/s 717 mmHg 78%
    03:00 -2°C° 0.1 mm 10 m/s 718 mmHg 75%
    04:00 -1°C° 0.1 mm 9 m/s 719 mmHg 73%
    05:00 -1°C° 0.1 mm 8 m/s 720 mmHg 74%
    06:00 -2°C° 0.1 mm 7 m/s 721 mmHg 76%
    07:00 -2°C° 0.1 mm 6 m/s 722 mmHg 77%
    08:00 -2°C° 0.1 mm 6 m/s 722 mmHg 78%
    09:00 -1°C° 0.1 mm 5 m/s 722 mmHg 79%
    10:00 -1°C° 0.1 mm 5 m/s 723 mmHg 80%
    11:00 -1°C° 0 mm 5 m/s 722 mmHg 80%
    12:00 -1°C° 0 mm 5 m/s 722 mmHg 80%
    13:00 -2°C° 0 mm 6 m/s 722 mmHg 79%
    14:00 -2°C° 0.1 mm 6 m/s 721 mmHg 79%
    15:00 -2°C° 0.1 mm 7 m/s 720 mmHg 78%
    16:00 -1°C° 0.1 mm 8 m/s 719 mmHg 78%
    17:00 -1°C° 0.2 mm 9 m/s 718 mmHg 79%
    18:00 -1°C° 0.2 mm 9 m/s 717 mmHg 80%
    19:00 -2°C° 0.2 mm 10 m/s 716 mmHg 81%
    20:00 0°C° 0.3 mm 9 m/s 715 mmHg 82%
    21:00 0°C° 0.3 mm 9 m/s 714 mmHg 84%
    22:00 0°C° 0.3 mm 8 m/s 713 mmHg 85%
    23:00 0°C° 0 mm 8 m/s 713 mmHg 86%

    15 Décembre, Samedi

    Heure Température Précipitation Vent Pression Humidité
    00:00 -1°C° 0 mm 7 m/s 712 mmHg 86%
    01:00 -1°C° 0 mm 7 m/s 712 mmHg 86%
    02:00 -1°C° 0 mm 6 m/s 712 mmHg 85%
    03:00 -1°C° 0 mm 6 m/s 712 mmHg 84%
    04:00 -1°C° 0 mm 6 m/s 712 mmHg 83%
    05:00 0°C° 0 mm 5 m/s 712 mmHg 83%
    06:00 0°C° 0 mm 5 m/s 712 mmHg 82%
    07:00 0°C° 0 mm 5 m/s 713 mmHg 82%
    08:00 0°C° 0 mm 5 m/s 713 mmHg 82%
    09:00 0°C° 0 mm 5 m/s 713 mmHg 81%
    10:00 0°C° 0 mm 5 m/s 713 mmHg 81%
    11:00 -1°C° 0 mm 6 m/s 712 mmHg 79%
    12:00 -1°C° 0 mm 7 m/s 712 mmHg 78%
    13:00 -1°C° 0 mm 8 m/s 711 mmHg 77%
    14:00 0°C° 0.1 mm 10 m/s 710 mmHg 81%
    15:00 -1°C° 0.1 mm 12 m/s 709 mmHg 85%
    16:00 -1°C° 0.1 mm 14 m/s 708 mmHg 90%
    17:00 -1°C° 0.6 mm 15 m/s 707 mmHg 90%
    18:00 -1°C° 0.6 mm 15 m/s 706 mmHg 90%
    19:00 -2°C° 0.6 mm 16 m/s 706 mmHg 90%
    20:00 -2°C° 0.3 mm 16 m/s 705 mmHg 90%
    21:00 -2°C° 0.3 mm 16 m/s 704 mmHg 90%
    22:00 -2°C° 0.3 mm 17 m/s 703 mmHg 90%
    23:00 -2°C° 0.2 mm 17 m/s 702 mmHg 89%

    16 Décembre, Dimanche

    Heure Température Précipitation Vent Pression Humidité
    00:00 -2°C° 0.2 mm 18 m/s 701 mmHg 88%
    01:00 -2°C° 0.2 mm 18 m/s 700 mmHg 87%
    02:00 -2°C° 1 mm 18 m/s 699 mmHg 88%
    03:00 -2°C° 1 mm 17 m/s 698 mmHg 90%
    04:00 -2°C° 1 mm 16 m/s 697 mmHg 91%
    05:00 -1°C° 0.3 mm 14 m/s 697 mmHg 91%
    06:00 -1°C° 0.3 mm 12 m/s 697 mmHg 91%
    07:00 0°C° 0.3 mm 10 m/s 697 mmHg 92%
    08:00 0°C° 0.2 mm 10 m/s 698 mmHg 90%
    09:00 0°C° 0.2 mm 10 m/s 699 mmHg 88%
    10:00 +1°C° 0.2 mm 10 m/s 700 mmHg 86%
    11:00 +1°C° 0.1 mm 9 m/s 701 mmHg 86%
    12:00 +1°C° 0.1 mm 9 m/s 701 mmHg 85%
    13:00 +1°C° 0.1 mm 8 m/s 702 mmHg 85%
    14:00 +1°C° 0.1 mm 8 m/s 703 mmHg 84%
    15:00 0°C° 0.1 mm 9 m/s 704 mmHg 84%
    16:00 0°C° 0.1 mm 9 m/s 705 mmHg 83%
    17:00 0°C° 0.1 mm 10 m/s 706 mmHg 85%
    18:00 0°C° 0.1 mm 10 m/s 707 mmHg 87%
    19:00 -1°C° 0.1 mm 11 m/s 707 mmHg 89%
    20:00 -1°C° 0.1 mm 11 m/s 708 mmHg 90%
    21:00 -1°C° 0.1 mm 12 m/s 708 mmHg 91%
    22:00 -1°C° 0.1 mm 12 m/s 708 mmHg 91%
    23:00 -1°C° 0.1 mm 11 m/s 709 mmHg 91%
    Voir plus